This is the latest recevied weather packets stored in our database for station/object EA3GKP-10. If no packets are shown the sender has not sent any weather packets the latest 1 day(s).
| Time | Temp. | Humidity | Pressure | Rain* | Wind** | Luminosity | Snow |
|---|---|---|---|---|---|---|---|
| 1778082152 | 20° C | - | - | 0 mm | 2.24 m/s, 63° | - | - |
| 1778081851 | 19.44° C | - | - | 0 mm | 3.58 m/s, 79° | - | - |
| 1778080033 | 19.44° C | - | - | 0 mm | 0 m/s | - | - |
| 1778079426 | 19.44° C | - | - | 0 mm | 0 m/s | - | - |
| 1778078820 | 20.56° C | - | - | 0 mm | 0 m/s | - | - |
| 1778077002 | 20.56° C | - | - | 0 mm | 2.68 m/s, 108° | - | - |
| 1778076699 | 20.56° C | - | - | 0 mm | 1.79 m/s, 127° | - | - |
| 1778075790 | 20° C | - | - | 0 mm | 3.13 m/s, 103° | - | - |
| 1778075185 | 20° C | - | - | 0 mm | 2.24 m/s, 142° | - | - |
| 1778074882 | 20° C | - | - | 0 mm | 4.02 m/s, 359° | - | - |
| 1778074579 | 21.11° C | - | - | 0 mm | 2.24 m/s, 45° | - | - |
| 1778074276 | 20.56° C | - | - | 0 mm | 1.79 m/s, 82° | - | - |
| 1778073973 | 20° C | - | - | 0 mm | 3.58 m/s, 87° | - | - |
| 1778072153 | 21.11° C | - | - | 0 mm | 0.45 m/s, 359° | - | - |
| 1778071546 | 21.67° C | - | - | 0 mm | 2.24 m/s, 131° | - | - |
| 1778070639 | 21.11° C | - | - | 0 mm | 0 m/s | - | - |
| 1778069722 | 20° C | - | - | 0 mm | 1.79 m/s, 127° | - | - |
| 1778069417 | 22.22° C | - | - | 0 mm | 2.68 m/s, 117° | - | - |
| 1778068205 | 20.56° C | - | - | 0 mm | 3.58 m/s, 94° | - | - |
| 1778067902 | 20° C | - | - | 0 mm | 2.68 m/s, 359° | - | - |
| 1778067599 | 21.11° C | - | - | 0 mm | 3.58 m/s, 122° | - | - |
| 1778066689 | 21.11° C | - | - | 0 mm | 0 m/s | - | - |
| 1778066081 | 21.11° C | - | - | 0 mm | 0.45 m/s, 359° | - | - |
| 1778065778 | 20.56° C | - | - | 0 mm | 0 m/s | - | - |
| 1778065475 | 20.56° C | - | - | 0 mm | 0 m/s | - | - |
* Rain latest hour (hover to see other rain measurements)
** Current wind speed in m/s (hover to see current wind gust speed)